Regional Weather Roundup
Issued by NWS Albany, NY

Home | Current Version | Previous Version | Graphics & Text | Print | Product List | Glossary Off
Versions: 1 2 3 4 5 6 7 8 9 10 11 12 13 14 15 16 17 18 19 20 21 22 23 24 25 26 27 28 29 30 31 32 33 34 35 36 37 38 39 40 41 42 43 44 45 46 47 48 49 50

638
ASUS41 KALY 190210
RWRALY

NEW YORK STATE HOURLY WEATHER ROUNDUP
NATIONAL WEATHER SERVICE ALBANY NY
900 PM EST THU JAN 18 2018

NOTE: "FAIR" INDICATES FEW OR NO CLOUDS BELOW 12,000 FEET WITH NO
SIGNIFICANT WEATHER AND/OR NO OBSTRUCTIONS TO VISIBILITY.

NYZ032-033-038>043-046>054-057>066-NYZ062>081-082-084-190300-
EAST


CITY           SKY/WX    TMP DP  RH WIND       PRES   REMARKS
ALBANY         FLURRIES  23  13  65 NW12      30.03R WCI  12
GLENS FALLS    CLOUDY    20  17  88 S3        29.98R
POUGHKEEPSIE   FAIR      11   7  84 CALM      30.04R
NEWBURGH       CLEAR     18  14  86 NW8       30.03R WCI   7
MONTGOMERY     FAIR      22  11  62 W5        30.02R WCI  16
WHITE PLAINS   FAIR      21  13  71 CALM      30.02R
ISLIP          FAIR      26  15  63 NW3       30.04R
NEW YORK CITY  FAIR      29  13  51 NW15      30.06R WCI  18
CENTRAL PARK   FAIR      28  12  51 NW10      30.07R WCI  19
$$

NYZ005>009-017-018-044>046-055-056-190300-
CENTRAL


CITY           SKY/WX    TMP DP  RH WIND       PRES   REMARKS
FULTON         MOCLDY    22  14  71 SW7       30.01F WCI  13
SYRACUSE       MOCLDY    20  13  74 SW6       30.02F WCI  12
ROME           CLOUDY    21  14  74 W6        30.03F WCI  13
ELMIRA         FAIR       9   6  88 CALM      30.01F
BINGHAMTON     FAIR      14   8  77 CALM      29.96S
MONTICELLO     FAIR      13   9  84 W7        29.98R WCI   3
$$

NYZ026>034-041>043-087-190300-
NORTH


CITY           SKY/WX    TMP DP  RH WIND       PRES   REMARKS
WATERTOWN      CLOUDY    26  24  92 SW12G21   29.97S FOG     WCI  16
FORT DRUM      NOT AVBL
OGDENSBURG     CLOUDY    26  21  82 SW9       29.94S WCI  16
MASSENA        CLOUDY    25  20  81 SW8       29.95R WCI  16
SARANAC LAKE   CLOUDY    20  19  96 MISG      29.84F FOG
PLATTSBURGH    CLOUDY    27  18  69 SW5       29.92F WCI  22
$$

NYZ001>004-010>016-019>021-085-190300-
WEST


CITY           SKY/WX    TMP DP  RH WIND       PRES   REMARKS
NIAGARA FALLS  FAIR      26  15  63 SW15G28   29.95F WCI  14
BUFFALO        CLOUDY    22  13  68 SW14      29.96F WCI   9
DUNKIRK        FAIR      23  12  62 S16       29.99F WCI  10
JAMESTOWN      FAIR      18  11  74 S14       29.97F WCI   4
WELLSVILLE     FAIR      20  11  68 W12G20    29.93F WCI   8
ROCHESTER      MOCLDY    20  13  74 S6        29.98F WCI  12
PENN YAN       FAIR      13   6  74 CALM      29.98F HAZE
$$

             KEY
       WCI = WIND CHILL INDEX
       VSB = VISIBILITY
       HX  = HEAT INDEX
$$




USA.gov is the U.S. government's official web portal to all federal, state and local government web resources and services.